FW9074 Weather Reports


time (UTC)temp
F
wind
direction
speed
knots
gust
knots
rain 1hr
in
rain 24hr
in
rain mn
in
humidity
%
barometer
mb
20260503200112 72 164 0.9 1.7 0.00 0.00 0.00 50 1012.6
20260503195609 72 164 0.0 0.0 0.00 0.00 0.00 53 1012.5
20260503195106 71 164 0.0 0.9 0.00 0.00 0.00 53 1012.8
20260503194603 71 164 0.0 0.0 0.00 0.00 0.00 54 1012.8
20260503194058 71 164 0.0 0.9 0.00 0.00 0.00 53 1012.9
20260503193555 70 164 0.0 0.0 0.00 0.00 0.00 55 1012.9
20260503193050 70 164 0.0 0.0 0.00 0.00 0.00 52 1013.1
20260503192547 70 164 0.0 1.7 0.00 0.00 0.00 51 1013.1
20260503192043 70 164 0.0 4.3 0.00 0.00 0.00 53 1013.1
20260503191539 70 164 0.0 0.9 0.00 0.00 0.00 53 1013.1
20260503191036 70 164 0.0 2.6 0.00 0.00 0.00 54 1013.1
20260503190533 70 164 0.0 0.0 0.00 0.00 0.00 57 1013.4
20260503190030 69 164 0.0 2.6 0.00 0.00 0.00 56 1013.4
20260503185527 69 164 0.0 1.7 0.00 0.00 0.00 56 1013.2
20260503185021 69 164 0.0 0.0 0.00 0.00 0.00 57 1013.3
20260503184517 69 164 0.0 0.9 0.00 0.00 0.00 57 1013.6
20260503184014 69 164 0.0 0.0 0.00 0.00 0.00 58 1013.5
20260503183510 68 164 0.0 0.0 0.00 0.00 0.00 58 1013.6
20260503183008 68 164 0.0 0.0 0.00 0.00 0.00 59 1013.5
20260503182507 68 164 0.0 0.0 0.00 0.00 0.00 58 1013.6
20260503182004 68 164 0.0 0.0 0.00 0.00 0.00 57 1013.6
20260503181500 68 164 0.0 0.0 0.00 0.00 0.00 55 1013.6
20260503180956 68 164 0.0 0.0 0.00 0.00 0.00 57 1013.8
20260503180454 68 164 0.0 0.0 0.00 0.00 0.00 59 1013.8
20260503175951 68 164 0.0 0.0 0.00 0.00 0.00 59 1013.8
20260503175449 68 164 0.0 0.0 0.00 0.00 0.00 60 1013.9
20260503174738 65 164 0.0 0.0 0.00 0.00 0.00 65 1014.0
20260503174236 65 164 0.0 0.0 0.00 0.00 0.00 65 1014.0
20260503173736 64 164 0.0 0.0 0.00 0.00 0.00 68 1013.8
20260503173232 64 164 0.0 0.0 0.00 0.00 0.00 66 1014.0
20260503172729 64 164 0.0 0.0 0.00 0.00 0.00 67 1013.8
20260503172227 63 164 0.0 0.9 0.00 0.00 0.00 66 1014.1
20260503171723 63 164 0.0 0.9 0.00 0.00 0.00 67 1014.1
20260503171220 63 164 0.0 0.0 0.00 0.00 0.00 71 1014.0
20260503170717 63 164 0.0 0.0 0.00 0.00 0.00 72 1014.1
20260503170214 62 164 0.0 0.0 0.00 0.00 0.00 71 1014.0
20260503160136 64 164 0.0 0.0 0.00 0.00 0.00 67 1014.0
20260503150606 63 164 0.0 0.0 0.00 0.00 0.00 65 1014.1
20260503130955 50 164 0.0 0.0 0.00 0.00 0.00 88 1013.9
20260503130453 50 164 0.0 0.0 0.00 0.00 0.00 88 1014.0
20260503110349 52 165 0.0 0.0 0.00 0.00 0.00 88 1014.4
20260503090241 53 165 0.0 0.0 0.00 0.00 0.00 89 1014.5
20260503081208 54 165 0.0 0.0 0.00 0.00 0.00 88 1014.7
20260503080704 54 165 0.0 0.0 0.00 0.00 0.00 88 1014.6
20260503080201 53 165 0.0 0.0 0.00 0.00 0.00 87 1014.3
20260503072638 54 165 0.0 0.0 0.00 0.00 0.00 86 1014.3
20260503072134 54 165 0.0 0.0 0.00 0.00 0.00 85 1014.5
20260503071631 55 165 0.0 0.0 0.00 0.00 0.00 85 1014.6
20260503071128 55 165 0.0 0.0 0.00 0.00 0.00 85 1014.5
20260503070625 55 165 0.0 0.0 0.00 0.00 0.00 84 1014.5
20260503070123 55 165 0.0 0.0 0.00 0.00 0.00 83 1014.4
20260503055043 56 165 0.0 0.0 0.00 0.00 0.00 74 1014.2
20260503054539 56 165 0.0 0.0 0.00 0.00 0.00 73 1014.4
20260503054037 56 165 0.0 0.0 0.00 0.00 0.00 71 1014.5
20260503053535 56 165 0.0 0.0 0.00 0.00 0.00 73 1014.5
20260503053032 56 165 0.0 0.0 0.00 0.00 0.00 71 1014.3
20260503052529 56 165 0.0 0.0 0.00 0.00 0.00 71 1014.4
20260503052025 57 165 0.0 0.0 0.00 0.00 0.00 70 1014.4
20260503051521 57 165 0.0 0.0 0.00 0.00 0.00 70 1014.5
20260503051019 57 165 0.0 0.0 0.00 0.00 0.00 71 1014.6
20260503050514 57 165 0.0 0.0 0.00 0.00 0.00 71 1014.5
20260503050012 57 165 0.0 0.0 0.00 0.00 0.00 70 1014.5
20260503045509 57 165 0.0 0.0 0.00 0.00 0.00 70 1014.5
20260503045006 58 165 0.0 0.0 0.00 0.00 0.00 70 1014.2
20260503044503 58 164 0.0 0.0 0.00 0.00 0.00 69 1014.3
20260503044000 58 165 0.0 0.0 0.00 0.00 0.00 70 1014.3
20260503043456 58 164 0.0 0.0 0.00 0.00 0.00 70 1014.3
20260503042953 59 164 0.0 0.0 0.00 0.00 0.00 69 1014.4
20260503042450 59 164 0.0 0.0 0.00 0.00 0.00 69 1014.4
20260503041946 59 164 0.0 0.0 0.00 0.00 0.00 69 1014.0
20260503041443 59 164 0.0 0.0 0.00 0.00 0.00 69 1014.2
20260503040941 60 164 0.0 0.0 0.00 0.00 0.00 69 1013.8
20260503040438 60 164 0.0 0.0 0.00 0.00 0.00 69 1013.9
20260503035935 60 164 0.0 0.0 0.00 0.00 0.00 69 1014.0
20260503035432 61 164 0.0 0.0 0.00 0.00 0.00 68 1013.7
20260503034930 62 164 0.0 0.0 0.00 0.00 0.00 67 1013.8
20260503034427 62 164 0.0 0.0 0.00 0.00 0.00 67 1013.7
20260503033924 62 164 0.0 0.0 0.00 0.00 0.00 65 1013.5
20260503033421 63 164 0.0 0.0 0.00 0.00 0.00 64 1013.5
20260503032919 63 164 0.0 0.0 0.00 0.00 0.00 64 1013.5
20260503032417 63 164 0.0 0.0 0.00 0.00 0.00 65 1013.4
20260503031915 64 164 0.0 0.0 0.00 0.00 0.00 64 1013.5
20260503031412 64 164 0.0 0.0 0.00 0.00 0.00 64 1013.4
20260503030909 64 164 0.0 0.0 0.00 0.00 0.00 63 1013.4
20260503030405 65 164 0.0 0.0 0.00 0.00 0.00 63 1013.5
20260503025902 65 164 0.0 0.0 0.00 0.00 0.00 63 1013.1
20260503025359 66 164 0.0 0.0 0.00 0.00 0.00 62 1013.2
20260503024856 66 164 0.0 0.0 0.00 0.00 0.00 62 1013.3
20260503024353 66 164 0.0 0.0 0.00 0.00 0.00 62 1013.1
20260503023850 67 164 0.0 0.0 0.00 0.00 0.00 61 1012.9
20260503023347 67 164 0.0 0.0 0.00 0.00 0.00 61 1013.0
20260503022843 67 164 0.0 0.0 0.00 0.00 0.00 62 1012.9
20260503022338 68 164 0.0 0.0 0.00 0.00 0.00 61 1012.9
20260503021835 68 164 0.0 0.0 0.00 0.00 0.00 61 1012.9
20260503021331 68 164 0.0 0.0 0.00 0.00 0.00 61 1013.1
20260503020828 69 164 0.0 0.0 0.00 0.00 0.00 60 1012.8
20260503020326 69 164 0.0 0.0 0.00 0.00 0.00 61 1013.2
20260503015822 69 164 0.0 0.0 0.00 0.00 0.00 60 1013.0
20260503015319 70 164 0.0 0.0 0.00 0.00 0.00 59 1013.0
20260503014815 70 164 0.0 0.0 0.00 0.00 0.00 59 1013.0
20260503014313 71 164 0.0 0.0 0.00 0.00 0.00 60 1013.1
20260503013810 71 164 0.0 0.0 0.00 0.00 0.00 58 1012.9
20260503013308 72 164 0.0 0.9 0.00 0.00 0.00 56 1012.9
20260503012804 72 164 0.0 0.0 0.00 0.00 0.00 59 1013.1
20260503012305 72 164 0.0 0.0 0.00 0.00 0.00 57 1012.8
20260503011759 72 164 0.0 0.0 0.00 0.00 0.00 56 1013.0
20260503011255 72 164 0.0 0.0 0.00 0.00 0.00 56 1012.9
20260503010752 72 164 0.0 0.0 0.00 0.00 0.00 57 1013.2
20260503010249 72 164 0.0 0.9 0.00 0.00 0.00 56 1013.0
20260503005746 73 164 0.0 0.0 0.00 0.00 0.00 55 1013.2
20260503005243 72 164 0.0 0.0 0.00 0.00 0.00 57 1013.0
20260503004739 72 164 0.0 0.9 0.00 0.00 0.00 56 1012.8
20260503004238 72 164 0.0 0.0 0.00 0.00 0.00 58 1013.0
20260503003734 72 164 0.0 0.0 0.00 0.00 0.00 57 1013.2
20260503003232 72 164 0.0 0.0 0.00 0.00 0.00 58 1012.9
20260503002728 72 164 0.9 1.7 0.00 0.00 0.00 58 1013.1
20260503002225 72 164 0.0 0.0 0.00 0.00 0.00 59 1013.1
20260503001721 72 164 0.0 0.0 0.00 0.00 0.00 60 1013.1
20260503001218 72 164 0.0 0.0 0.00 0.00 0.00 59 1013.1
20260503000716 72 164 0.0 0.9 0.00 0.00 0.00 58 1013.4
20260503000213 72 164 0.0 0.0 0.00 0.00 0.00 59 1013.4
20260502235710 72 164 0.0 0.9 0.00 0.00 0.00 59 1012.9
20260502235208 72 164 0.0 0.9 0.00 0.00 0.00 59 1013.2
20260502234703 71 164 0.0 0.0 0.00 0.00 0.00 59 1013.2
20260502234201 71 164 0.0 0.9 0.00 0.00 0.00 59 1013.3
20260502233656 71 164 0.0 0.0 0.00 0.00 0.00 60 1013.5
20260502233154 71 164 0.0 1.7 0.00 0.00 0.00 59 1013.6
20260502232649 71 164 0.9 1.7 0.00 0.00 0.00 58 1013.6
20260502232147 71 164 0.0 0.0 0.00 0.00 0.00 61 1013.6
20260502231643 71 164 0.0 0.0 0.00 0.00 0.00 59 1013.7
20260502231141 71 164 0.0 0.9 0.00 0.00 0.00 59 1013.7
20260502230640 71 164 0.0 0.0 0.00 0.00 0.00 61 1013.8
20260502230138 71 164 0.0 0.0 0.00 0.00 0.00 63 1013.9
20260502225633 71 164 0.0 0.0 0.00 0.00 0.00 59 1014.0
20260502225131 71 164 0.0 0.0 0.00 0.00 0.00 60 1013.8
20260502224626 71 164 0.0 0.0 0.00 0.00 0.00 59 1014.4
20260502224123 71 164 0.0 0.0 0.00 0.00 0.00 59 1014.0
20260502223621 71 164 0.0 0.0 0.00 0.00 0.00 59 1014.2
20260502223120 70 164 0.0 0.0 0.00 0.00 0.00 59 1014.4
20260502222617 71 164 0.0 0.9 0.00 0.00 0.00 57 1014.2
20260502222113 71 164 0.0 0.0 0.00 0.00 0.00 59 1014.3
20260502221609 70 164 0.0 0.0 0.00 0.00 0.00 59 1014.5
20260502221106 70 164 0.0 2.6 0.00 0.00 0.00 59 1014.4
20260502220602 70 164 0.0 0.0 0.00 0.00 0.00 58 1014.6
20260502220058 70 164 0.0 0.0 0.00 0.00 0.00 59 1014.5
20260502215555 69 164 0.0 0.0 0.00 0.00 0.00 60 1014.6
20260502215052 69 164 0.0 0.0 0.00 0.00 0.00 59 1014.5
20260502214549 69 164 0.0 0.9 0.00 0.00 0.00 58 1014.7
20260502214047 69 164 0.0 0.0 0.00 0.00 0.00 59 1014.9
20260502213543 69 164 0.0 0.9 0.00 0.00 0.00 59 1014.7
20260502213041 69 164 0.0 0.0 0.00 0.00 0.00 59 1014.8
20260502212540 68 164 0.0 0.0 0.00 0.00 0.00 60 1014.8
20260502212037 68 164 0.0 1.7 0.00 0.00 0.00 59 1015.0
20260502211532 68 164 0.0 1.7 0.00 0.00 0.00 61 1014.8
20260502211030 68 164 0.0 0.9 0.00 0.00 0.00 59 1014.9
20260502210527 68 164 0.0 1.7 0.00 0.00 0.00 60 1014.9
20260502210024 67 164 0.0 0.0 0.00 0.00 0.00 63 1015.2
20260502205521 67 164 0.0 0.9 0.00 0.00 0.00 63 1015.2
20260502205018 67 164 0.0 0.0 0.00 0.00 0.00 63 1015.1
20260502204515 67 164 0.0 0.0 0.00 0.00 0.00 62 1015.1
20260502204013 66 164 0.0 0.0 0.00 0.00 0.00 63 1015.3
20260502203509 66 164 0.0 1.7 0.00 0.00 0.00 62 1015.3
20260502203006 66 164 0.0 0.0 0.00 0.00 0.00 62 1015.4
20260502202502 66 164 0.0 0.0 0.00 0.00 0.00 64 1015.2
20260502202001 66 164 0.0 0.9 0.00 0.00 0.00 63 1015.5
20260502201456 65 164 0.0 0.0 0.00 0.00 0.00 63 1015.5
20260502200953 65 164 0.0 0.0 0.00 0.00 0.00 64 1015.4
20260502200449 65 164 0.0 0.0 0.00 0.00 0.00 63 1015.8